User: anonymous   Login
Location: Three Oaks Observatory
(31.1535°N, 83.5955°W)
Time: 14:40:57
(UTC-04:00)
Language:

nSIGHT-1 - Orbit

View from above orbital plane
View from above orbital plane
View from above satellite
View from above satellite

Ground track
Ground track

The orbit data is extracted from the following two-line orbital elements,

1 42726U 98067MF  19293.42065331  .00035438  00000-0  21868-3 0  9990
2 42726  51.6332  33.6973 0005087 307.4569  52.5968 15.76774448137300
Epoch (UTC): 20 October 2019 10:05:44
Eccentricity: 0.0005087
inclination: 51.6332°
perigee height: 336 km
apogee height: 343 km
right ascension of ascending node: 33.6973°
argument of perigee: 307.4569°
revolutions per day: 15.76774448
mean anomaly at epoch: 52.5968°
orbit number at epoch: 13730

The dashed part of the orbit path shows where the satellite is in the earth's shadow,  

DLR